    Orbital elements:
    2016 FD14
    Epoch 2019 Apr. 27.0 TT = JDT 2458600.5                 MPC
    M  11.78817              (2000.0)            P               Q
    n   0.00974172     Peri.  325.57042     -0.97934328     +0.00352506
    a  21.7126166      Node   216.31333     +0.02150755     -0.99236005
    e   0.5143861      Incl.   19.96185     -0.20105761     -0.12332524
    P 101.17           H   12.1           G   0.15           U   0
    Residuals in seconds of arc
    140125 F51  0.1+  0.0     160302 F51  0.0   0.3+    160429 F51  0.1-  0.1-
    140125 F51  0.2+  0.2+    160302 F51  0.2+  0.0     160429 F51  0.0   0.0
    141218 F51  0.1-  0.1-    160302 F51  0.0   0.2-    160429 F51  0.2+  0.2+
    150116 F51  0.1+  0.1-    160312 F51  0.1-  0.1+    170221 F51  0.3-  0.4-
    150118 F51  0.3-  0.0     160312 F51  0.0   0.1-    170221 F51  0.0   0.0
    150118 F51  0.1-  0.1-    160312 F51  0.1+  0.3+    170221 F51  0.0   0.2-
    150118 F51  0.1-  0.2+    160312 F51  0.1+  0.3+    170221 F51  0.0   0.2+
    150223 F51  0.1-  0.1+    160328 W84  0.2+  0.0     170321 F51  0.3-  0.1+
    150223 F51  0.1+  0.1+    160328 W84  0.3+  0.1+    170321 F51  0.1+  0.0
    150223 F51  0.1+  0.0     160328 W84  0.2+  0.0     170321 F51  0.0   0.1-
    150223 F51  0.0   0.0     160328 W84  0.1+  0.2+    170321 F51  0.1-  0.1-
    150410 F51  0.1+  0.0     160330 W84  0.2+  0.1+    170328 F51  0.2+  0.3+
    150410 F51  0.0   0.0     160330 W84  0.3+  0.1+    170328 F51  0.1-  0.0
    150410 F51  0.2+  0.3-    160330 W84  0.2+  0.0     170328 F51  0.2-  0.3+
    150410 F51  0.3-  0.2-    160330 W84  0.3+  0.1+    180317 F51  0.3-  0.0
    150416 F51  0.0   0.1+    160331 F51  0.0   0.0     180317 F51  0.1+  0.1-
    150416 F51  0.0   0.1+    160331 F51  0.0   0.0     180317 F51  0.3+  0.0
    150416 F51  0.3-  0.0     160331 F51  0.2+  0.6-    180317 F51  0.1-  0.1+
    150423 F51  0.3+  0.3-    160331 F51  0.0   0.0     180412 F51  0.3+  0.2+
    150517 F51  0.1+  0.0     160331 F51  0.0   0.0     180412 F51  0.4-  0.1+
    150517 F51  0.2+  0.2+    160331 F51  0.0   0.0     190402 F51  0.2+  0.2+
    150517 F51  0.4-  0.0     160331 F51  0.2+  0.1-    190402 F51  0.0   0.1-
    150517 F51  0.5-  0.3+    160401 W84  0.2+  0.0     190402 F51  0.2-  0.1-
    160110 F51  0.1-  0.9-    160401 W84  0.4+  0.0     190402 F51  0.2-  0.2-
    160116 F51  0.0   0.2-    160401 W84  0.2+  0.0     190410 F51  0.3+  0.2+
    160116 F51  0.0   0.4+    160401 W84  0.3+  0.1+    190507 F51  0.1-  0.1+
    160116 F51  0.0   0.1-    160401 W84  0.3+  0.0     190507 F51  0.0   0.2-
    160204 F51  0.3+  0.1+    160401 W84  0.2+  0.1+    190509 F51  0.2+  0.1-
    160204 F51  0.0   0.0     160401 W84  0.1+  0.2+    190509 F51  0.1-  0.3+
    160204 F51  0.0   0.1-    160401 W84  0.3+  0.0     190509 F51  0.0   0.2-
    160204 F51  0.3-  0.2-    160429 F51  0.1-  0.0     190509 F51  0.0   0.0
    
    Ephemeris:
    2016 FD14                a,e,i = 21.71, 0.51, 20                 q = 10.5439
    Date    TT    R. A. (2000) Decl.     Delta      r    Elong.  Phase     V
    2019 05 30    14 35 58.0 -12 31 55  10.6161 11.5240   152.4     2.3    22.8
    ...
    2019 06 14    14 33 32.7 -12 12 18  10.7778 11.5461   137.4     3.4    22.9
    ...
    2019 06 22    14 32 37.9 -12 04 01  10.8843 11.5579   129.5     3.9    23.0
    ...
    2019 06 28    14 32 08.4 -11 58 56  10.9719 11.5668   123.7     4.2    23.0
    2019 06 29    14 32 04.5 -11 58 11  10.9871 11.5683   122.7     4.2    23.0
    2019 06 30    14 32 01.0 -11 57 27  11.0025 11.5698   121.7     4.3    23.0
    ...
    2019 07 06    14 31 45.9 -11 53 42  11.0976 11.5788   116.0     4.5    23.0
    ...
    2019 07 14    14 31 43.3 -11 50 17  11.2311 11.5908   108.3     4.8    23.1
    ...
    2019 07 29    14 32 33.2 -11 48 44  11.4948 11.6134    94.2     5.0    23.1
    
    A. U. Tomatic                (C) Copyright 2019 MPC           M.P.E.C. 2019-M99
    


    Read MPEC 2019-M98 Read MPEC 2019-M100


    MPEC number:

    Enter an MPEC number in one of the following forms:

    • 1997-B01 (the full form)
    • J97B01 (the packed version of the full form)
    • B01 (the abbreviated form)